| time (UTC) | temp F | wind direction | speed MPH | gust MPH | rain 1hr in | rain 24hr in | rain mn in | humidity % | barometer mb |
| 20260507183018 | 52 | 35 | 6.0 | 9.0 | 0.00 | 0.00 | 0.00 | 69 | 1018.6 |
| 20260507181517 | 52 | 35 | 5.0 | 9.0 | 0.00 | 0.00 | 0.00 | 69 | 1018.6 |
| 20260507180021 | 52 | 37 | 7.0 | 9.0 | 0.00 | 0.00 | 0.00 | 67 | 1018.4 |
| 20260507174523 | 52 | 356 | 7.0 | 11.0 | 0.00 | 0.00 | 0.00 | 68 | 1018.3 |
| 20260507173031 | 52 | 23 | 8.0 | 12.0 | 0.00 | 0.00 | 0.00 | 69 | 1018.2 |
| 20260507171520 | 52 | 345 | 8.0 | 12.0 | 0.00 | 0.00 | 0.00 | 67 | 1018.1 |
| 20260507170013 | 52 | 28 | 7.0 | 14.0 | 0.00 | 0.00 | 0.00 | 68 | 1017.8 |
| 20260507164612 | 52 | 345 | 11.0 | 15.0 | 0.00 | 0.00 | 0.00 | 69 | 1017.8 |
| 20260507163009 | 52 | 338 | 10.0 | 13.0 | 0.00 | 0.00 | 0.00 | 66 | 1017.8 |
| 20260507161508 | 52 | 356 | 10.0 | 12.0 | 0.00 | 0.00 | 0.00 | 67 | 1017.8 |
| 20260507160011 | 52 | 340 | 8.0 | 11.0 | 0.00 | 0.00 | 0.00 | 68 | 1018.0 |
| 20260507154508 | 52 | 43 | 8.0 | 11.0 | 0.00 | 0.00 | 0.00 | 69 | 1018.0 |
| 20260507153007 | 52 | 23 | 7.0 | 11.0 | 0.00 | 0.00 | 0.00 | 70 | 1018.0 |
| 20260507151505 | 51 | 5 | 9.0 | 12.0 | 0.00 | 0.00 | 0.00 | 70 | 1017.9 |
| 20260507150005 | 52 | 347 | 9.0 | 11.0 | 0.00 | 0.00 | 0.00 | 71 | 1017.8 |
| 20260507144505 | 52 | 7 | 8.0 | 11.0 | 0.00 | 0.00 | 0.00 | 71 | 1017.9 |
| 20260507143003 | 52 | 39 | 7.0 | 11.0 | 0.00 | 0.00 | 0.00 | 71 | 1017.9 |
| 20260507141502 | 52 | 8 | 7.0 | 11.0 | 0.00 | 0.00 | 0.00 | 73 | 1017.9 |
| 20260507140001 | 52 | 24 | 7.0 | 11.0 | 0.00 | 0.00 | 0.00 | 73 | 1018.0 |
| 20260507134600 | 52 | 341 | 7.0 | 10.0 | 0.00 | 0.00 | 0.00 | 73 | 1018.0 |
| 20260507133144 | 51 | 23 | 8.0 | 11.0 | 0.00 | 0.00 | 0.00 | 73 | 1018.0 |
| 20260507131559 | 51 | 356 | 6.0 | 8.0 | 0.00 | 0.00 | 0.00 | 74 | 1017.9 |
| 20260507130104 | 51 | 2 | 7.0 | 9.0 | 0.00 | 0.00 | 0.00 | 73 | 1017.8 |
| 20260507124605 | 51 | 32 | 6.0 | 9.0 | 0.00 | 0.00 | 0.00 | 74 | 1017.7 |
| 20260507123055 | 51 | 34 | 6.0 | 9.0 | 0.00 | 0.00 | 0.00 | 74 | 1017.7 |
| 20260507121553 | 51 | 6 | 6.0 | 9.0 | 0.00 | 0.00 | 0.00 | 74 | 1017.6 |
| 20260507120053 | 51 | 30 | 6.0 | 8.0 | 0.00 | 0.00 | 0.00 | 74 | 1017.6 |
| 20260507114600 | 51 | 13 | 6.0 | 8.0 | 0.00 | 0.00 | 0.00 | 75 | 1017.6 |
| 20260507113050 | 51 | 34 | 6.0 | 9.0 | 0.00 | 0.00 | 0.00 | 76 | 1017.6 |
| 20260507111549 | 51 | 45 | 6.0 | 9.0 | 0.00 | 0.00 | 0.00 | 76 | 1017.5 |
| 20260507110049 | 51 | 28 | 6.0 | 9.0 | 0.00 | 0.00 | 0.00 | 77 | 1017.5 |
| 20260507104547 | 51 | 37 | 5.0 | 9.0 | 0.00 | 0.00 | 0.00 | 77 | 1017.4 |
| 20260507103051 | 51 | 25 | 5.0 | 8.0 | 0.00 | 0.00 | 0.00 | 77 | 1017.4 |
| 20260507101548 | 51 | 341 | 5.0 | 8.0 | 0.00 | 0.00 | 0.00 | 77 | 1017.3 |
| 20260507100044 | 51 | 26 | 5.0 | 10.0 | 0.00 | 0.00 | 0.00 | 77 | 1017.2 |
| 20260507094554 | 51 | 20 | 6.0 | 10.0 | 0.00 | 0.00 | 0.00 | 77 | 1017.2 |
| 20260507093042 | 51 | 40 | 6.0 | 9.0 | 0.00 | 0.00 | 0.00 | 78 | 1017.1 |
| 20260507091540 | 51 | 349 | 8.0 | 11.0 | 0.00 | 0.00 | 0.00 | 77 | 1017.0 |
| 20260507090042 | 51 | 339 | 9.0 | 12.0 | 0.00 | 0.00 | 0.00 | 77 | 1016.8 |
| 20260507084540 | 51 | 357 | 9.0 | 13.0 | 0.00 | 0.00 | 0.00 | 77 | 1016.7 |
| 20260507083038 | 51 | 352 | 9.0 | 11.0 | 0.00 | 0.00 | 0.00 | 77 | 1016.6 |
| 20260507081539 | 51 | 23 | 8.0 | 11.0 | 0.00 | 0.00 | 0.00 | 78 | 1016.4 |
| 20260507080034 | 51 | 6 | 6.0 | 8.0 | 0.00 | 0.00 | 0.00 | 78 | 1016.3 |
| 20260507074533 | 51 | 353 | 2.0 | 4.0 | 0.00 | 0.00 | 0.00 | 77 | 1016.3 |
| 20260507073032 | 50 | 338 | 3.0 | 6.0 | 0.00 | 0.00 | 0.00 | 78 | 1016.2 |
| 20260507071529 | 50 | 33 | 3.0 | 5.0 | 0.00 | 0.00 | 0.00 | 77 | 1016.0 |
| 20260507070039 | 50 | 324 | 1.0 | 5.0 | 0.00 | 0.00 | 0.00 | 76 | 1015.9 |
| 20260507064622 | 50 | 312 | 2.0 | 6.0 | 0.00 | 0.00 | 0.00 | 75 | 1015.8 |
| 20260507063020 | 49 | 273 | 4.0 | 9.0 | 0.00 | 0.00 | 0.00 | 76 | 1015.7 |
| 20260507061515 | 48 | 276 | 1.0 | 6.0 | 0.00 | 0.00 | 0.00 | 79 | 1015.6 |
| 20260507060019 | 47 | 269 | 1.0 | 4.0 | 0.00 | 0.00 | 0.00 | 82 | 1015.7 |
| 20260507054507 | 46 | 253 | 1.0 | 5.0 | 0.00 | 0.00 | 0.00 | 84 | 1015.6 |
| 20260507053005 | 45 | 250 | 1.0 | 4.0 | 0.00 | 0.00 | 0.00 | 86 | 1015.5 |
| 20260507051501 | 44 | 245 | 1.0 | 3.0 | 0.00 | 0.00 | 0.00 | 88 | 1015.3 |
| 20260507050058 | 42 | 263 | 1.0 | 4.0 | 0.00 | 0.00 | 0.00 | 89 | 1015.3 |
| 20260507044615 | 41 | 240 | 2.0 | 3.0 | 0.00 | 0.00 | 0.00 | 89 | 1015.2 |
| 20260507043055 | 40 | 226 | 2.0 | 4.0 | 0.00 | 0.00 | 0.00 | 89 | 1015.0 |
| 20260507041554 | 39 | 226 | 2.0 | 4.0 | 0.00 | 0.00 | 0.00 | 89 | 1015.1 |
| 20260507040051 | 39 | 226 | 2.0 | 4.0 | 0.00 | 0.00 | 0.00 | 88 | 1014.9 |
| 20260507034554 | 40 | 236 | 2.0 | 4.0 | 0.00 | 0.00 | 0.00 | 89 | 1014.9 |
| 20260507033101 | 39 | 239 | 2.0 | 5.0 | 0.00 | 0.00 | 0.00 | 89 | 1014.8 |
| 20260507031558 | 39 | 237 | 2.0 | 4.0 | 0.00 | 0.00 | 0.00 | 89 | 1014.7 |
| 20260507030104 | 38 | 227 | 3.0 | 4.0 | 0.00 | 0.00 | 0.00 | 87 | 1014.6 |
| 20260507024602 | 40 | 239 | 3.0 | 4.0 | 0.00 | 0.00 | 0.00 | 87 | 1014.5 |
| 20260507023040 | 39 | 241 | 2.0 | 4.0 | 0.00 | 0.00 | 0.00 | 87 | 1014.5 |
| 20260507021545 | 40 | 233 | 0.0 | 3.0 | 0.00 | 0.00 | 0.00 | 87 | 1014.4 |
| 20260507020049 | 40 | 229 | 0.0 | 2.0 | 0.00 | 0.00 | 0.00 | 86 | 1014.4 |
| 20260507014543 | 40 | 247 | 0.0 | 1.0 | 0.00 | 0.00 | 0.00 | 87 | 1014.2 |
| 20260507013038 | 40 | 257 | 0.0 | 1.0 | 0.00 | 0.00 | 0.00 | 86 | 1014.1 |
| 20260507011535 | 41 | 281 | 0.0 | 1.0 | 0.00 | 0.00 | 0.00 | 86 | 1014.2 |
| 20260507010035 | 41 | 282 | 0.0 | 1.0 | 0.00 | 0.00 | 0.00 | 85 | 1014.2 |
| 20260507004526 | 41 | 301 | 0.0 | 1.0 | 0.00 | 0.00 | 0.00 | 84 | 1014.1 |
| 20260507003023 | 42 | 278 | 0.0 | 3.0 | 0.00 | 0.00 | 0.00 | 84 | 1014.1 |
| 20260507001525 | 43 | 214 | 1.0 | 5.0 | 0.00 | 0.00 | 0.00 | 84 | 1014.1 |
| 20260507000018 | 43 | 224 | 2.0 | 5.0 | 0.00 | 0.00 | 0.00 | 84 | 1014.0 |
| 20260506234517 | 43 | 214 | 3.0 | 6.0 | 0.00 | 0.00 | 0.00 | 83 | 1013.8 |
| 20260506233015 | 43 | 229 | 3.0 | 6.0 | 0.00 | 0.00 | 0.00 | 82 | 1013.9 |
| 20260506231512 | 43 | 234 | 3.0 | 6.0 | 0.00 | 0.00 | 0.00 | 81 | 1013.9 |
| 20260506230009 | 43 | 245 | 3.0 | 5.0 | 0.00 | 0.00 | 0.00 | 80 | 1013.8 |
| 20260506224507 | 43 | 239 | 2.0 | 5.0 | 0.00 | 0.00 | 0.00 | 79 | 1013.9 |
| 20260506223004 | 44 | 223 | 2.0 | 4.0 | 0.00 | 0.00 | 0.00 | 79 | 1013.8 |
| 20260506221501 | 44 | 255 | 2.0 | 6.0 | 0.00 | 0.00 | 0.00 | 78 | 1013.7 |
| 20260506214558 | 44 | 236 | 2.0 | 4.0 | 0.00 | 0.00 | 0.00 | 76 | 1013.6 |
| 20260506213055 | 45 | 259 | 1.0 | 4.0 | 0.00 | 0.00 | 0.00 | 75 | 1013.6 |
| 20260506211552 | 45 | 218 | 0.0 | 3.0 | 0.00 | 0.00 | 0.00 | 74 | 1013.5 |
| 20260506210052 | 46 | 253 | 1.0 | 3.0 | 0.00 | 0.00 | 0.00 | 73 | 1013.4 |
| 20260506204550 | 47 | 265 | 1.0 | 3.0 | 0.00 | 0.00 | 0.00 | 71 | 1013.3 |
| 20260506203048 | 47 | 244 | 2.0 | 6.0 | 0.00 | 0.00 | 0.00 | 69 | 1013.2 |
| 20260506201547 | 48 | 235 | 2.0 | 4.0 | 0.00 | 0.00 | 0.00 | 65 | 1013.0 |
| 20260506200047 | 48 | 236 | 3.0 | 4.0 | 0.00 | 0.00 | 0.00 | 62 | 1013.0 |
| 20260506194547 | 48 | 209 | 1.0 | 4.0 | 0.00 | 0.00 | 0.00 | 59 | 1012.9 |
| 20260506193045 | 49 | 218 | 0.0 | 3.0 | 0.00 | 0.00 | 0.00 | 57 | 1012.9 |
| 20260506191544 | 50 | 225 | 0.0 | 3.0 | 0.00 | 0.00 | 0.00 | 56 | 1012.8 |
| 20260506190044 | 51 | 217 | 1.0 | 3.0 | 0.00 | 0.00 | 0.00 | 54 | 1012.8 |
| 20260506184547 | 51 | 226 | 2.0 | 4.0 | 0.00 | 0.00 | 0.00 | 52 | 1012.5 |